SCP
0 0 0 0 -0 -0 0 0 0 0 0 0 0 0 0 0 0 0 0 1 1 1 1 1 1 1 1 0 0 0 0 0 0 0 0 0 0 0 0 0 0 0 0 0 0 0 0 0 0
0 0 0 0 -0 -0 0 0 0 0 0 0 0 0 0 0 0 0 0 1 1 1 1 1 1 1 1 1 0 0 0 0 0 0 0 0 0 0 0 0 0 0 0 0 0 0 0 0 0
0 0 0 0 -0 0 0 0 0 0 0 0 0 0 0 0 0 0 1 1 1 1 1 1 1 1 1 1 1 1 0 0 0 0 0 0 0 0 0 0 0 0 0 0 0 0 0 0 0
0 0 0 0 0 0 0 0 0 0 0 0 0 0 0 0 0 1 1 1 1 1 1 1 1 1 1 1 1 1 1 1 1 1 1 1 1 0 0 0 0 0 0 0 0 0 0 0 0
0 0 0 0 0 0 0 0 0 0 0 0 0 0 0 0 1 1 1 1 1 1 1 1 1 1 1 1 1 1 1 1 1 1 1 1 1 1 1 0 0 0 0 0 0 0 0 0 0
0 0 0 0 0 0 0 0 0 0 0 0 0 0 0 1 1 1 1 1 1 1 1 1 1 1 1 1 1 1 1 1 1 1 1 1 1 1 1 0 0 0 0 0 0 0 0 0 0
0 0 0 0 0 0 0 0 0 0 0 0 0 0 1 1 1 1 1 1 1 1 1 1 1 1 1 1 1 1 1 1 1 1 1 1 1 1 1 1 0 0 0 0 0 0 0 0 0
0 0 0 0 0 0 0 0 0 0 0 0 0 0 1 1 1 1 1 1 1 1 1 1 1 1 1 1 1 1 1 1 1 1 1 1 1 1 1 1 1 0 0 0 0 0 0 0 0
0 0 0 0 0 0 0 0 0 0 0 0 0 1 1 1 1 1 1 1 1 1 1 1 1 1 1 1 1 1 1 1 1 1 1 1 1 1 1 1 1 1 0 0 0 0 0 0 0
0 0 0 0 0 0 0 0 0 0 0 0 0 1 1 1 1 1 1 1 1 2 1 1 1 1 1 1 1 1 1 1 1 1 1 1 1 1 1 1 1 1 0 0 0 0 0 0 0
0 0 0 0 0 0 0 0 0 0 0 0 0 1 1 1 1 1 1 1 2 2 2 1 1 1 1 1 1 1 1 1 1 1 1 1 1 1 1 1 1 1 0 0 0 0 0 0 0
0 0 0 0 0 0 0 0 0 0 0 0 0 1 1 1 1 1 1 1 2 2 2 1 1 1 1 1 1 1 1 1 1 1 1 1 1 1 1 1 1 1 0 0 0 0 0 0 0
0 0 0 0 0 0 0 0 0 0 0 0 0 1 1 1 1 1 1 2 2 2 2 2 2 2 2 2 2 1 1 1 1 1 1 1 1 1 1 1 1 1 0 0 0 0 0 0 0
0 0 0 0 0 0 0 0 0 0 0 0 0 1 1 1 1 2 2 2 2 2 2 2 2 2 2 2 2 2 1 1 1 1 1 1 1 1 1 1 1 1 1 1 0 0 0 0 0
0 0 0 0 0 0 0 0 0 0 0 0 1 1 1 1 2 2 2 2 3 3 2 2 2 2 3 3 2 2 1 1 2 2 1 1 1 1 1 1 1 1 1 1 1 1 1 1 1
0 0 0 0 0 0 0 0 0 0 0 0 1 1 1 2 2 2 2 3 3 3 3 3 2 3 3 3 2 2 2 2 2 2 2 1 1 1 1 1 1 1 1 1 1 1 1 1 1
0 0 0 0 0 0 0 0 0 0 0 1 1 1 1 2 2 2 2 3 3 3 3 3 3 3 3 3 2 2 2 2 2 2 2 1 1 1 1 1 1 1 1 1 1 1 1 1 1
0 0 0 0 0 0 0 0 0 0 1 1 1 1 1 1 1 2 2 3 3 3 3 2 2 2 2 2 2 2 2 2 2 1 1 1 1 1 1 1 1 1 1 1 1 1 1 1 1
0 0 0 0 0 0 0 0 0 0 1 1 1 1 1 1 1 1 2 2 2 3 3 2 2 2 2 2 2 2 1 1 1 1 1 1 1 1 1 1 1 1 1 1 1 1 1 1 1
0 0 0 0 0 0 0 0 0 1 1 1 1 1 1 1 1 1 1 2 2 2 2 2 2 2 2 2 2 1 1 1 1 1 1 1 1 1 1 1 1 1 1 1 1 1 1 0 0
0 0 0 0 0 0 0 0 0 1 1 1 1 1 1 1 1 1 1 1 1 1 2 2 2 2 2 1 1 1 1 1 1 1 1 1 1 1 1 1 1 1 1 1 1 1 1 0 0
0 0 0 0 0 0 0 0 0 1 1 1 1 1 1 1 1 1 1 1 1 1 1 1 1 1 1 1 1 1 1 1 1 1 1 1 1 1 0 1 1 1 1 1 1 1 0 0 0
0 0 0 0 0 0 0 0 0 1 1 1 1 1 1 1 1 1 1 1 1 1 1 1 1 1 1 1 1 1 1 1 1 1 1 0 0 0 0 0 0 0 1 1 1 0 0 0 0
0 0 0 0 0 0 0 0 0 1 1 1 1 1 1 1 1 1 1 1 1 1 1 1 1 1 1 1 1 1 1 1 0 0 0 0 0 0 0 0 0 0 0 0 0 0 0 0 0
0 0 0 0 0 0 0 0 0 1 1 1 1 1 0 0 0 0 0 0 0 1 1 1 1 1 1 1 1 1 0 0 0 0 0 0 0 0 0 0 0 0 0 0 0 0 0 0 0
0 0 0 0 0 0 0 0 0 0 0 0 1 0 0 0 0 0 0 0 0 0 0 1 1 1 0 0 0 0 0 0 0 0 0 0 0 0 0 0 0 0 0 0 0 0 0 0 0
0 0 0 0 0 0 0 0 0 0 0 0 0 0 0 0 0 0 0 0 0 0 0 0 0 0 0 0 0 0 0 0 0 0 0 0 0 0 0 0 0 0 0 0 0 0 0 0 0
0 0 0 0 0 0 0 0 0 0 0 0 0 0 0 0 0 0 0 0 0 0 0 0 0 0 0 0 0 0 0 0 0 0 0 0 0 0 0 0 0 0 0 0 0 0 0 0 0
0 0 0 0 0 0 0 0 0 0 0 0 0 0 0 0 0 0 0 0 0 0 0 0 0 0 0 0 0 0 0 0 0 0 0 0 0 0 0 0 0 0 0 0 0 0 0 0 0
0 0 0 0 0 0 0 0 0 0 0 0 0 0 0 0 0 0 0 0 0 0 0 0 0 0 0 0 0 0 0 0 0 0 0 0 0 0 0 0 0 0 0 0 0 0 0 0 0
Wind_Speed
10 13 11 9 9 10 16 16 9 3 3 6 5 5 6 7 7 7 7 8 18 20 18 17 16 17 17 16 16 15 15 15 14 13 13 12 12 11 11 11 11 10 11 11 11 11 11 11 11
11 14 10 8 10 13 14 13 7 1 7 5 3 1 2 6 9 11 10 12 20 19 17 16 17 17 17 16 16 15 16 15 15 14 13 12 12 11 11 11 10 10 10 10 11 11 11 10 10
11 15 9 9 14 16 15 6 1 3 6 2 0 0 2 4 9 9 11 15 19 17 15 17 18 17 17 16 16 16 16 15 15 14 13 12 12 11 11 10 10 10 10 10 10 10 10 10 9
9 8 8 11 16 19 17 10 3 2 3 3 2 1 3 5 6 11 14 16 18 17 16 17 17 17 17 17 16 16 16 15 15 14 13 12 12 11 10 10 10 10 10 10 10 10 9 9 8
10 8 12 14 18 18 14 7 2 3 3 3 3 2 4 9 11 15 14 16 17 17 16 17 16 17 17 17 17 16 15 14 14 13 13 12 11 10 10 10 10 10 10 10 10 10 9 8 7
8 8 12 15 18 17 14 5 4 6 7 5 5 4 4 10 11 12 14 14 16 17 17 16 16 17 17 17 16 16 15 14 13 13 12 11 11 10 10 10 10 9 9 10 9 9 8 7 6
11 11 14 17 17 14 7 2 4 6 7 6 5 2 5 10 11 12 14 14 16 17 17 15 14 14 15 16 15 15 14 14 13 13 12 12 11 11 10 10 10 10 10 10 9 9 8 7 6
12 12 17 17 15 11 2 1 3 6 7 5 4 2 5 11 11 11 12 12 13 16 16 15 14 13 13 13 15 15 15 14 13 13 13 13 12 12 11 10 10 11 10 10 9 9 8 7 6
13 12 14 16 12 7 1 1 4 2 5 5 3 2 10 10 9 9 10 11 12 12 13 15 15 13 12 13 13 14 14 13 12 12 13 12 9 10 10 11 12 11 11 11 10 9 8 8 7
10 12 15 9 8 7 4 2 4 4 6 6 3 4 8 7 7 8 9 11 13 13 13 13 14 13 12 10 10 9 9 9 9 8 10 8 6 7 9 12 13 12 11 11 10 10 9 8 6
13 15 12 6 6 7 8 6 5 6 7 4 1 1 6 5 6 7 7 7 10 12 10 11 13 11 10 8 8 6 5 6 7 7 7 6 4 5 5 5 7 8 9 8 8 8 7 7 5
12 11 9 8 5 5 8 8 6 5 6 4 4 4 2 2 4 5 6 5 5 8 9 8 10 10 9 8 7 6 5 6 5 6 7 5 3 2 3 3 5 6 5 6 6 5 7 6 5
11 11 8 7 7 8 9 8 7 7 4 3 3 1 1 2 2 2 4 4 5 6 8 8 8 7 5 6 6 6 5 6 6 6 6 4 2 2 2 3 3 4 4 5 5 6 5 4 3
8 8 8 8 9 9 9 9 9 7 4 2 2 0 2 1 2 4 3 3 4 4 4 6 8 7 5 4 4 4 4 4 4 3 4 4 3 2 1 1 2 2 2 2 3 3 3 2 1
7 9 11 11 11 10 8 10 9 7 3 1 0 1 3 4 6 7 6 5 4 5 3 3 5 6 4 4 3 3 3 4 4 3 4 3 3 3 2 1 1 1 2 2 2 2 2 2 2
10 12 14 12 11 8 7 9 5 5 4 3 1 1 4 6 7 7 7 6 5 5 4 3 3 5 4 3 1 1 1 3 3 3 4 4 3 3 3 3 2 2 2 1 1 1 1 2 2
13 13 13 8 9 6 7 7 1 2 3 2 2 3 5 6 7 8 8 7 6 5 4 4 4 4 3 3 2 1 1 2 2 2 2 2 2 3 3 2 3 3 2 1 2 2 2 2 3
8 9 9 6 4 5 6 6 3 3 2 2 3 4 6 7 7 7 7 8 7 6 5 5 4 4 3 3 2 1 2 2 3 3 4 3 1 1 1 1 1 1 1 1 1 1 1 2 3
11 11 10 8 4 5 6 7 4 3 2 3 4 4 7 7 8 9 8 8 7 7 6 5 4 3 3 2 2 2 2 2 3 3 4 4 4 3 1 1 1 1 1 1 2 2 2 2 3
11 11 12 9 5 5 7 9 6 5 4 5 6 7 7 8 9 10 9 9 8 8 7 6 5 4 3 1 1 2 3 3 3 3 5 5 4 3 2 2 1 1 1 1 1 1 2 2 2
12 12 11 10 8 7 11 12 9 6 6 7 7 7 8 10 10 9 9 8 8 8 8 6 5 4 4 3 2 3 3 3 2 3 3 4 5 4 4 4 2 2 2 1 1 1 2 2 2
11 10 10 11 12 10 11 10 7 8 8 8 7 8 8 10 9 8 8 8 8 8 7 7 6 6 5 4 3 4 4 3 2 3 4 5 6 6 5 4 3 3 3 2 1 1 1 2 2
10 11 12 14 14 14 12 10 7 8 9 9 9 9 8 8 8 9 9 9 9 8 7 7 7 7 6 5 4 4 4 4 3 5 6 7 7 7 7 6 5 4 4 3 3 2 2 1 1
9 11 13 13 11 14 11 10 6 4 9 11 11 9 7 8 8 9 9 8 8 9 9 8 8 9 8 7 7 7 6 6 7 7 6 5 5 6 8 7 5 5 5 5 4 3 4 3 4
8 8 7 7 6 8 7 6 2 5 8 12 13 12 9 9 8 9 9 9 10 10 10 9 9 9 8 8 8 7 7 7 7 6 6 6 5 5 7 6 6 6 6 5 5 5 5 5 5
6 8 7 7 8 7 4 2 3 7 9 12 13 12 10 10 9 10 10 9 9 10 10 10 9 9 8 8 8 7 7 6 6 7 6 6 5 5 6 6 6 6 6 6 6 6 6 6 6
8 7 7 8 12 10 3 3 5 7 8 10 12 11 11 10 10 10 9 9 10 10 9 10 10 10 9 9 9 8 9 8 8 8 7 6 5 5 6 6 6 7 7 6 6 6 7 7 7
7 7 6 6 6 7 5 0 2 7 8 9 10 10 10 10 9 9 9 9 9 10 10 10 10 10 9 9 9 9 9 8 8 8 8 7 7 6 7 7 7 7 7 7 7 7 7 8 7
6 6 6 6 5 5 5 2 2 6 9 10 10 10 9 9 9 8 8 9 9 9 9 10 10 10 10 10 10 10 9 9 9 8 8 7 6 6 7 6 7 7 7 7 6 7 8 8 7
7 6 5 5 5 5 4 1 3 7 10 11 11 11 10 9 9 9 9 9 9 10 10 10 9 10 9 9 9 9 9 9 9 8 8 6 6 6 6 6 7 7 7 6 6 7 7 7 7
Wind_Direction
277 262 253 256 246 243 252 260 257 215 110 71 46 13 13 30 58 110 154 161 124 127 135 140 142 145 149 150 149 147 145 143 141 139 135 132 128 124 121 118 116 115 116 115 115 116 115 113 113
275 267 247 244 249 247 250 249 240 201 94 80 80 29 14 56 83 115 133 131 123 130 141 144 143 146 149 150 150 149 149 148 146 144 141 139 135 131 128 126 125 123 122 121 121 120 119 119 119
266 265 251 240 242 254 269 292 269 118 111 122 88 48 44 65 86 105 121 128 127 134 142 138 146 147 149 150 150 150 151 151 150 148 146 144 141 137 135 134 132 130 129 127 125 124 123 124 124
255 231 237 245 246 245 254 260 253 190 149 165 206 236 87 75 84 112 128 135 134 140 143 142 148 148 149 150 150 151 152 153 152 151 149 148 146 144 142 141 139 136 134 132 130 127 127 128 129
242 247 236 249 255 261 264 261 268 265 240 206 210 215 103 100 106 117 135 140 143 146 143 146 148 148 150 151 152 153 153 154 153 152 151 150 149 149 149 148 146 144 141 139 136 134 135 135 136
235 237 242 248 252 253 256 255 258 254 257 255 227 193 127 124 124 135 141 147 149 149 143 143 149 150 152 154 154 154 153 153 153 152 152 151 151 152 153 153 152 149 147 145 142 140 140 140 142
248 255 257 260 264 263 257 267 268 266 257 262 274 217 147 132 135 141 145 153 154 146 140 147 153 154 154 154 154 153 153 153 153 152 153 156 157 159 161 159 157 155 152 152 151 150 150 151 156
248 269 271 268 268 275 296 300 264 274 284 296 295 267 122 116 130 139 146 150 152 147 146 154 157 156 158 158 157 156 154 154 155 157 161 164 166 168 169 166 165 163 161 160 160 161 162 166 175
244 255 263 266 268 274 353 294 272 286 283 293 314 47 99 116 134 146 152 154 153 149 152 157 159 160 164 163 160 158 157 157 158 164 168 170 177 176 177 177 168 171 170 169 171 173 176 181 195
231 247 255 288 320 328 341 318 295 275 257 247 233 124 117 132 149 157 163 169 161 156 162 161 157 161 167 165 153 163 166 162 173 171 174 188 192 182 180 168 169 175 176 177 182 186 190 204 205
234 250 278 310 321 332 318 302 291 277 272 282 271 168 131 139 159 167 162 170 163 155 156 164 158 159 167 156 152 162 168 162 184 172 179 201 199 186 162 158 169 178 183 188 182 193 209 211 216
251 265 281 296 319 306 288 288 288 283 288 346 23 40 63 177 182 169 165 164 156 148 154 156 155 159 167 151 158 164 169 164 179 172 182 194 195 181 156 165 179 183 192 194 181 201 211 216 212
238 262 261 266 273 264 267 272 271 271 285 341 356 37 259 214 177 141 134 138 146 157 154 151 136 143 153 139 160 167 172 169 176 173 180 182 171 167 160 182 178 190 198 190 190 205 202 205 209
263 261 262 257 254 254 254 257 251 250 258 274 290 118 353 11 79 82 98 121 127 119 127 138 141 142 146 141 155 148 164 152 168 160 163 167 150 154 173 196 179 195 194 199 203 204 174 174 147
267 273 261 246 239 238 247 251 240 229 221 213 12 91 82 49 60 61 59 68 88 95 99 112 140 135 141 147 175 163 161 165 153 145 148 154 153 152 166 180 190 225 208 189 197 198 152 157 140
247 248 248 232 216 220 236 262 249 186 177 182 166 68 84 67 59 56 56 63 66 81 86 81 115 122 133 142 172 161 137 130 133 143 154 157 171 160 176 179 193 229 211 186 189 180 163 147 132
238 244 250 219 195 213 230 259 215 158 182 175 126 97 86 71 59 52 50 56 56 63 72 79 70 99 132 137 117 90 74 84 95 104 117 148 185 182 181 192 191 201 182 173 199 176 163 139 119
278 264 268 266 205 218 239 249 233 201 202 158 117 112 96 78 61 57 57 55 49 56 64 70 77 83 109 115 117 123 79 69 63 58 52 54 32 57 180 180 153 130 118 133 119 110 123 129 131
303 302 294 283 265 254 257 250 236 217 152 111 105 95 92 78 67 57 53 53 46 51 54 60 56 57 79 108 158 178 134 95 80 70 66 55 35 29 30 74 101 110 126 148 129 129 136 141 131
281 280 280 277 271 267 270 259 226 200 161 128 118 104 91 79 64 54 48 46 40 46 47 51 49 43 43 56 147 140 111 87 83 72 61 52 47 33 31 23 54 99 108 77 100 129 143 177 179
268 270 279 290 285 257 257 254 228 164 129 113 106 102 93 82 69 59 53 43 43 40 38 40 48 45 49 45 67 98 96 86 70 64 61 45 42 43 48 41 34 55 84 90 108 152 170 186 200
273 283 291 286 278 267 255 262 238 170 144 128 109 98 87 76 72 64 56 48 44 42 40 40 46 49 50 60 78 102 106 107 89 78 68 60 50 47 44 41 43 52 57 63 53 41 167 164 167
288 298 292 282 275 272 263 259 239 171 153 136 117 103 94 87 78 69 59 52 45 43 46 43 47 50 47 54 70 86 93 97 91 81 74 66 55 48 46 41 46 52 55 57 52 48 53 92 108
283 288 285 274 272 271 277 269 247 158 156 144 130 118 106 98 85 74 66 60 53 47 47 49 52 49 46 50 57 72 83 90 87 80 79 69 61 51 46 42 45 52 50 49 52 48 59 57 61
274 279 283 285 277 272 306 294 28 105 135 143 137 128 117 104 89 76 64 56 52 47 44 46 52 53 53 56 59 66 78 85 83 82 80 75 64 59 50 46 47 52 53 52 57 60 60 59 61
281 273 275 289 288 287 282 292 74 77 100 119 122 121 112 98 85 74 65 57 56 54 50 50 56 55 56 62 65 67 70 75 78 77 80 82 77 71 68 63 58 56 58 63 63 66 66 65 63
281 272 283 286 282 288 268 128 109 85 100 117 121 116 105 93 83 73 65 59 57 55 55 57 60 57 55 61 67 70 73 79 83 84 80 82 86 86 76 73 72 68 67 68 74 72 65 63 61
273 298 305 291 294 296 298 171 166 159 151 134 124 115 105 97 90 82 71 65 62 62 58 59 62 63 60 63 67 72 74 78 82 82 79 78 77 79 78 72 70 70 69 68 72 76 71 70 64
273 265 277 290 307 308 303 6 131 165 150 136 128 120 113 103 95 88 82 76 72 70 67 65 64 64 65 67 69 70 70 72 76 79 79 78 76 78 79 79 76 74 73 70 73 79 75 72 66
278 281 288 290 297 297 302 26 67 116 124 127 126 119 111 105 99 93 86 78 73 71 71 71 70 71 73 76 77 75 72 72 74 75 73 74 74 76 80 79 78 77 75 73 73 78 79 77 72